Location: Hylvaty SDH
(49.9612°N, 16.4057°E)
Time: 19:51:33
(UTC+02:00)

Transit 4A - Pass Details

Date: 18 August 2020
Orbit: 862 x 982 km, 66.8° (Epoch: 28 September)

Event Time Altitude Azimuth Distance (km) Brightness Sun altitude
Rises 12:17:29 0° 294° (WNW) 3,583 10.7 52.0°
Reaches altitude 10° 12:20:59 10° 314° (NW) 2,665 10.1 52.1°
Maximum altitude 12:24:58 17° 354° (N) 2,211 9.7 52.3°
Drops below altitude 10° 12:29:00 10° 34° (NE) 2,713 10.2 52.4°
Sets 12:32:38 0° 54° (NE) 3,676 10.9 52.5°
